User: anonymous   Login
Location: Hertford
(51.8000°N, 0.0667°W)
Time: 03:33:59
(UTC+00:00)
Language:

Cosmos 1300 Rocket - Orbit

View from above orbital plane
View from above orbital plane
View from above satellite
View from above satellite

Ground track
Ground track

The orbit data is extracted from the following two-line orbital elements,

1 12786U 81082B   20337.42587434  .00000148  00000-0  14558-4 0  9995
2 12786  82.4902 216.0764 0018628  44.8782 315.3936 14.84807393101318
Epoch (UTC): 02 December 2020 10:13:15
Eccentricity: 0.0018628
inclination: 82.4902°
perigee height: 601 km
apogee height: 627 km
right ascension of ascending node: 216.0764°
argument of perigee: 44.8782°
revolutions per day: 14.84807393
mean anomaly at epoch: 315.3936°
orbit number at epoch: 10131

The dashed part of the orbit path shows where the satellite is in the earth's shadow,  

DLR